Biloxi, MS

10:56 PM CDT on August 26, 2016 (GMT -0500)
Keesler Air Force Base

Weather History for KBIX - April, 2013

Change the Weather History Date:

Thursday, April 25, 2013

  Actual Average Record
Temperature  
Mean Temperature 65 °F -  
Max Temperature 76 °F 78 °F 86 °F (1999)
Min Temperature 55 °F 60 °F 40 °F (1977)
Growing Degree Days 15 (Base 50)    
Moisture  
Dew Point 54 °F    
Average Humidity 79    
Maximum Humidity 94    
Minimum Humidity 53    
Precipitation  
Precipitation 0.00 in - - ()
Sea Level Pressure  
Sea Level Pressure 30.24 in    
Wind  
Wind Speed 11 mph (NNE)    
Max Wind Speed 15 mph    
Max Gust Speed 18 mph    
Visibility 10 miles    
Events      
Averages and records for this station are not official NWS values.
T = Trace of Precipitation, MM = Missing Value Source: NWS Daily Summary

Daily Weather History Graph

Daily Weather History Graph

Search for Another Location

Airport or City:

Trip Planner

Search our weather history database for the weather conditions in past years. The results will help you decide how hot, cold, wet, or windy it might be!

Date:

Astronomy

Apr. 25, 2013 Rise Set
Actual Time 6:17 AM CDT 7:29 PM CDT
Civil Twilight 5:52 AM CDT 7:55 PM CDT
Nautical Twilight 5:22 AM CDT 8:25 PM CDT
Astronomical Twilight 4:51 AM CDT 8:56 PM CDT
Moon 7:40 PM CDT (4/25) 6:00 AM CDT (4/25)
Length of Visible Light 14h 02m
Length of Day
13h 12m
Full, 100% of the Moon is Illuminated
Apr 25
Full
Apr 25
Full
May 2
Last Quarter
May 9
New
May 17
First Quarter

Hourly Weather History & Observations

Time (CDT) Temp. Dew Point Humidity Pressure Visibility Wind Dir Wind Speed Gust Speed Precip Events Conditions
2:58 AM 56.7 °F 54.7 °F 93% 30.18 in 10.0 mi NNE 11.5 mph - N/A   Overcast
3:43 AM 55.4 °F 53.6 °F 94% 30.18 in 10.0 mi NNE 10.4 mph - N/A   Overcast
3:58 AM 56.1 °F 54.0 °F 92% 30.19 in 10.0 mi NNE 11.5 mph - N/A   Overcast
4:43 AM 55.4 °F 53.6 °F 94% 30.20 in 10.0 mi NNE 11.5 mph - N/A   Overcast
4:58 AM 55.9 °F 54.0 °F 93% 30.20 in 10.0 mi NNE 13.8 mph 18.4 mph N/A   Overcast
5:13 AM 55.4 °F 53.6 °F 94% 30.19 in 10.0 mi NNE 12.7 mph - N/A   Overcast
5:18 AM 55.4 °F 53.6 °F 94% 30.19 in 10.0 mi NNE 11.5 mph - N/A   Overcast
5:23 AM 55.4 °F 53.6 °F 94% 30.19 in 10.0 mi NNE 15.0 mph - N/A   Overcast
5:38 AM 55.4 °F 53.6 °F 94% 30.19 in 10.0 mi NNE 15.0 mph - N/A   Overcast
6:05 AM 55.4 °F 53.6 °F 94% 30.19 in 10.0 mi NNE 13.8 mph - N/A   Overcast
6:58 AM 55.6 °F 53.1 °F 91% 30.23 in 10.0 mi NNE 11.5 mph - N/A   Overcast
7:33 AM 55.4 °F 53.6 °F 94% 30.25 in 10.0 mi NNE 10.4 mph - N/A   Overcast
7:48 AM 55.4 °F 51.8 °F 88% 30.25 in 10.0 mi NNE 9.2 mph 17.3 mph N/A   Overcast
7:58 AM 55.6 °F 52.7 °F 90% 30.26 in 10.0 mi NNE 11.5 mph - N/A   Overcast
8:23 AM 55.4 °F 53.6 °F 94% 30.26 in 10.0 mi North 10.4 mph - N/A   Overcast
8:58 AM 55.6 °F 52.7 °F 90% 30.27 in 10.0 mi NNE 11.5 mph - N/A   Overcast
9:28 AM 57.2 °F 53.6 °F 88% 30.28 in 10.0 mi NNE 15.0 mph - N/A   Overcast
9:58 AM 57.2 °F 53.6 °F 88% 30.29 in 10.0 mi NNE 13.8 mph - N/A   Overcast
10:33 AM 60.8 °F 53.6 °F 77% 30.29 in 10.0 mi NNE 9.2 mph - N/A   Overcast
10:58 AM 63.1 °F 55.0 °F 75% 30.30 in 10.0 mi North 6.9 mph - N/A   Partly Cloudy
11:58 AM 66.9 °F 56.5 °F 69% 30.30 in 10.0 mi Variable 5.8 mph - N/A   Clear
12:58 PM 70.2 °F 57.9 °F 65% 30.30 in 10.0 mi Variable 2.3 mph - N/A   Mostly Cloudy
1:58 PM 72.9 °F 59.7 °F 63% 30.28 in 10.0 mi North 5.8 mph - N/A   Clear
2:58 PM 74.7 °F 60.1 °F 60% 30.25 in 10.0 mi NE 6.9 mph - N/A   Clear
3:58 PM 75.6 °F 59.0 °F 56% 30.24 in 10.0 mi NNE 9.2 mph - N/A   Clear
4:58 PM 75.6 °F 57.4 °F 53% 30.23 in 10.0 mi NNE 11.5 mph - N/A   Clear
5:58 PM 73.6 °F 56.7 °F 55% 30.23 in 10.0 mi NNE 9.2 mph - N/A   Clear
6:58 PM 70.2 °F 53.1 °F 55% 30.23 in 10.0 mi NNE 10.4 mph - N/A   Clear
7:58 PM 67.5 °F 50.2 °F 54% 30.24 in 10.0 mi NNE 8.1 mph - N/A   Clear
8:58 PM 64.9 °F 49.6 °F 58% 30.26 in 10.0 mi NNE 8.1 mph - N/A   Clear
9:58 PM 63.0 °F 50.5 °F 64% 30.28 in 10.0 mi NNE 5.8 mph - N/A   Clear
10:58 PM 61.0 °F 50.5 °F 68% 30.28 in 10.0 mi NNE 5.8 mph - N/A   Clear
11:58 PM 60.4 °F 49.1 °F 66% 30.27 in 10.0 mi NE 6.9 mph - N/A   Clear